Time,TemperatureF,DewpointF,PressureIn,WindDirection,WindDirectionDegrees,WindSpeedMPH,WindSpeedGustMPH,Humidity,HourlyPrecipIn,Conditions,Clouds,dailyrainin,SoftwareType,DateUTC
2013-01-22 00:02:00,56.0,22.0,30.04,NNE,14,2.0,3.0,26,0.00,,,0.00,,2013-01-22 08:02:00,
2013-01-22 00:11:00,56.0,22.0,30.04,NNE,14,2.0,3.0,26,0.00,,,0.00,,2013-01-22 08:11:00,
2013-01-22 00:22:00,56.0,23.0,30.05,NNE,15,0.0,3.0,27,0.00,,,0.00,,2013-01-22 08:22:00,
2013-01-22 00:32:00,55.0,22.0,30.05,NNE,15,1.0,1.0,27,0.00,,,0.00,,2013-01-22 08:32:00,
2013-01-22 00:42:00,55.0,22.0,30.05,NNE,15,1.0,1.0,27,0.00,,,0.00,,2013-01-22 08:42:00,
2013-01-22 00:52:00,53.0,22.0,30.04,NNE,15,0.0,1.0,29,0.00,,,0.00,,2013-01-22 08:52:00,
2013-01-22 01:02:00,53.0,20.0,30.04,NNE,15,0.0,1.0,27,0.00,,,0.00,,2013-01-22 09:02:00,
2013-01-22 01:11:00,53.0,20.0,30.04,NNE,15,0.0,1.0,27,0.00,,,0.00,,2013-01-22 09:11:00,
2013-01-22 01:22:00,53.0,26.0,30.04,NNW,332,1.0,3.0,35,0.00,,,0.00,,2013-01-22 09:22:00,
2013-01-22 01:32:00,52.0,25.0,30.05,NNW,332,0.0,2.0,35,0.00,,,0.00,,2013-01-22 09:32:00,
2013-01-22 01:42:00,52.0,25.0,30.05,NNW,332,0.0,2.0,35,0.00,,,0.00,,2013-01-22 09:42:00,
2013-01-22 01:52:00,52.0,27.0,30.05,NNW,332,0.0,2.0,37,0.00,,,0.00,,2013-01-22 09:52:00,
2013-01-22 02:02:00,54.0,22.0,30.05,North,350,3.0,3.0,28,0.00,,,0.00,,2013-01-22 10:02:00,
2013-01-22 02:11:00,54.0,22.0,30.05,North,350,3.0,3.0,28,0.00,,,0.00,,2013-01-22 10:11:00,
2013-01-22 02:22:00,54.0,22.0,30.05,NNE,22,2.0,3.0,28,0.00,,,0.00,,2013-01-22 10:22:00,
2013-01-22 02:32:00,55.0,22.0,30.05,NNE,22,1.0,3.0,27,0.00,,,0.00,,2013-01-22 10:32:00,
2013-01-22 02:42:00,55.0,22.0,30.05,NNE,22,1.0,3.0,27,0.00,,,0.00,,2013-01-22 10:42:00,
2013-01-22 02:52:00,55.0,20.0,30.05,NNE,26,1.0,3.0,25,0.00,,,0.00,,2013-01-22 10:52:00,
2013-01-22 03:02:00,54.0,21.0,30.05,NNE,13,1.0,3.0,27,0.00,,,0.00,,2013-01-22 11:02:00,
2013-01-22 03:11:00,54.0,21.0,30.05,NNE,13,1.0,3.0,27,0.00,,,0.00,,2013-01-22 11:11:00,
2013-01-22 03:22:00,53.0,20.0,30.05,North,11,1.0,3.0,27,0.00,,,0.00,,2013-01-22 11:22:00,
2013-01-22 03:32:00,52.0,21.0,30.05,North,10,0.0,2.0,29,0.00,,,0.00,,2013-01-22 11:32:00,
2013-01-22 03:42:00,52.0,21.0,30.05,North,10,0.0,2.0,29,0.00,,,0.00,,2013-01-22 11:42:00,
2013-01-22 03:52:00,51.0,22.0,30.05,North,10,0.0,2.0,32,0.00,,,0.00,,2013-01-22 11:52:00,
2013-01-22 04:02:00,51.0,23.0,30.05,North,10,1.0,3.0,33,0.00,,,0.00,,2013-01-22 12:02:00,
2013-01-22 04:12:00,51.0,23.0,30.05,North,10,1.0,3.0,33,0.00,,,0.00,,2013-01-22 12:12:00,
2013-01-22 04:22:00,50.0,23.0,30.04,North,5,1.0,3.0,34,0.00,,,0.00,,2013-01-22 12:22:00,
2013-01-22 04:32:00,50.0,23.0,30.04,North,5,1.0,3.0,34,0.00,,,0.00,,2013-01-22 12:32:00,
2013-01-22 04:42:00,50.0,23.0,30.04,NNW,344,0.0,3.0,34,0.00,,,0.00,,2013-01-22 12:42:00,
2013-01-22 04:52:00,50.0,23.0,30.04,North,350,2.0,3.0,35,0.00,,,0.00,,2013-01-22 12:52:00,
2013-01-22 05:03:00,50.0,23.0,30.04,NW,311,1.0,5.0,34,0.00,,,0.00,,2013-01-22 13:03:00,
2013-01-22 05:11:00,50.0,23.0,30.04,NW,311,1.0,5.0,34,0.00,,,0.00,,2013-01-22 13:11:00,
2013-01-22 05:22:00,50.0,23.0,30.04,NW,311,1.0,3.0,35,0.00,,,0.00,,2013-01-22 13:22:00,
2013-01-22 05:33:00,48.0,24.0,30.05,SSE,167,0.0,3.0,38,0.00,,,0.00,,2013-01-22 13:33:00,
2013-01-22 05:42:00,48.0,24.0,30.05,SSE,167,0.0,3.0,38,0.00,,,0.00,,2013-01-22 13:42:00,
2013-01-22 05:52:00,47.0,23.0,30.05,NE,40,0.0,2.0,38,0.00,,,0.00,,2013-01-22 13:52:00,
2013-01-22 06:02:00,47.0,23.0,30.06,NE,36,1.0,2.0,39,0.00,,,0.00,,2013-01-22 14:02:00,
2013-01-22 06:12:00,47.0,23.0,30.06,NE,36,1.0,2.0,39,0.00,,,0.00,,2013-01-22 14:12:00,
2013-01-22 06:22:00,48.0,24.0,30.06,NE,36,0.0,2.0,38,0.00,,,0.00,,2013-01-22 14:22:00,
2013-01-22 06:33:00,48.0,24.0,30.06,NE,36,0.0,2.0,38,0.00,,,0.00,,2013-01-22 14:33:00,
2013-01-22 06:43:00,48.0,24.0,30.06,NE,36,0.0,2.0,38,0.00,,,0.00,,2013-01-22 14:43:00,
2013-01-22 06:53:00,46.0,25.0,30.07,South,171,0.0,1.0,43,0.00,,,0.00,,2013-01-22 14:53:00,
2013-01-22 07:02:00,45.0,25.0,30.07,NNE,32,2.0,3.0,46,0.00,,,0.00,,2013-01-22 15:02:00,
2013-01-22 07:12:00,45.0,25.0,30.07,NNE,32,2.0,3.0,46,0.00,,,0.00,,2013-01-22 15:12:00,
2013-01-22 07:22:00,45.0,25.0,30.07,NNE,32,1.0,3.0,45,0.00,,,0.00,,2013-01-22 15:22:00,
2013-01-22 07:33:00,46.0,25.0,30.07,NNE,29,1.0,3.0,43,0.00,,,0.00,,2013-01-22 15:33:00,
2013-01-22 07:42:00,46.0,25.0,30.07,NNE,29,1.0,3.0,43,0.00,,,0.00,,2013-01-22 15:42:00,
2013-01-22 07:52:00,48.0,26.0,30.08,NNE,15,0.0,3.0,42,0.00,,,0.00,,2013-01-22 15:52:00,
2013-01-22 08:03:00,49.0,27.0,30.07,NNE,15,0.0,1.0,43,0.00,,,0.00,,2013-01-22 16:03:00,
2013-01-22 08:12:00,49.0,27.0,30.07,NNE,15,0.0,1.0,43,0.00,,,0.00,,2013-01-22 16:12:00,
2013-01-22 08:22:00,51.0,26.0,30.08,NNE,12,1.0,3.0,37,0.00,,,0.00,,2013-01-22 16:22:00,
2013-01-22 08:32:00,53.0,26.0,30.08,NNE,12,0.0,2.0,35,0.00,,,0.00,,2013-01-22 16:32:00,
2013-01-22 08:42:00,53.0,26.0,30.08,NNE,12,0.0,2.0,35,0.00,,,0.00,,2013-01-22 16:42:00,
2013-01-22 08:53:00,54.0,26.0,30.08,NNE,12,1.0,1.0,34,0.00,,,0.00,,2013-01-22 16:53:00,
2013-01-22 09:02:00,56.0,28.0,30.09,WNW,295,1.0,3.0,34,0.00,,,0.00,,2013-01-22 17:02:00,
2013-01-22 09:12:00,56.0,28.0,30.09,WNW,295,1.0,3.0,34,0.00,,,0.00,,2013-01-22 17:12:00,
2013-01-22 09:22:00,57.0,27.0,30.09,WNW,293,1.0,3.0,32,0.00,,,0.00,,2013-01-22 17:22:00,
2013-01-22 09:33:00,59.0,28.0,30.10,NW,317,1.0,3.0,31,0.00,,,0.00,,2013-01-22 17:33:00,
2013-01-22 09:43:00,59.0,28.0,30.10,NW,317,1.0,3.0,31,0.00,,,0.00,,2013-01-22 17:43:00,
2013-01-22 09:53:00,63.0,27.0,30.10,NNW,333,2.0,3.0,25,0.00,,,0.00,,2013-01-22 17:53:00,
2013-01-22 10:03:00,64.0,23.0,30.10,NNW,346,3.0,3.0,21,0.00,,,0.00,,2013-01-22 18:03:00,
2013-01-22 10:12:00,64.0,23.0,30.10,NNW,346,3.0,3.0,21,0.00,,,0.00,,2013-01-22 18:12:00,
2013-01-22 10:22:00,66.0,24.0,30.10,NNW,344,3.0,3.0,20,0.00,,,0.00,,2013-01-22 18:22:00,
2013-01-22 10:33:00,68.0,22.0,30.09,NNW,336,2.0,5.0,17,0.00,,,0.00,,2013-01-22 18:33:00,
2013-01-22 10:42:00,68.0,22.0,30.09,NNW,336,2.0,5.0,17,0.00,,,0.00,,2013-01-22 18:42:00,
2013-01-22 10:53:00,69.0,19.0,30.09,NNW,348,2.0,5.0,15,0.00,,,0.00,,2013-01-22 18:53:00,
2013-01-22 11:03:00,71.0,18.0,30.09,NNW,329,3.0,6.0,13,0.00,,,0.00,,2013-01-22 19:03:00,
2013-01-22 11:12:00,71.0,18.0,30.09,NNW,329,3.0,6.0,13,0.00,,,0.00,,2013-01-22 19:12:00,
2013-01-22 11:22:00,73.0,17.0,30.08,NW,325,1.0,5.0,12,0.00,,,0.00,,2013-01-22 19:22:00,
2013-01-22 11:33:00,74.0,18.0,30.08,NW,319,1.0,5.0,12,0.00,,,0.00,,2013-01-22 19:33:00,
2013-01-22 11:42:00,74.0,18.0,30.08,NW,319,1.0,5.0,12,0.00,,,0.00,,2013-01-22 19:42:00,
2013-01-22 11:53:00,76.0,18.0,30.07,NW,316,1.0,5.0,11,0.00,,,0.00,,2013-01-22 19:53:00,
2013-01-22 12:02:00,77.0,18.0,30.05,NW,315,2.0,3.0,11,0.00,,,0.00,,2013-01-22 20:02:00,
2013-01-22 12:12:00,77.0,18.0,30.05,NW,315,2.0,3.0,11,0.00,,,0.00,,2013-01-22 20:12:00,
2013-01-22 12:22:00,78.0,19.0,30.04,SW,229,1.0,3.0,11,0.00,,,0.00,,2013-01-22 20:22:00,
2013-01-22 12:32:00,79.0,20.0,30.03,SW,233,2.0,6.0,11,0.00,,,0.00,,2013-01-22 20:32:00,
2013-01-22 12:42:00,79.0,20.0,30.03,SW,233,2.0,6.0,11,0.00,,,0.00,,2013-01-22 20:42:00,
2013-01-22 12:53:00,79.0,18.0,30.03,West,272,1.0,5.0,10,0.00,,,0.00,,2013-01-22 20:53:00,
2013-01-22 13:02:00,80.0,16.0,30.02,WSW,242,1.0,5.0,9,0.00,,,0.00,,2013-01-22 21:02:00,
2013-01-22 13:12:00,80.0,16.0,30.02,WSW,242,1.0,5.0,9,0.00,,,0.00,,2013-01-22 21:12:00,
2013-01-22 13:22:00,80.0,16.0,30.01,WSW,257,0.0,3.0,9,0.00,,,0.00,,2013-01-22 21:22:00,
2013-01-22 13:33:00,81.0,14.0,30.01,WSW,240,1.0,5.0,8,0.00,,,0.00,,2013-01-22 21:33:00,
2013-01-22 13:42:00,81.0,14.0,30.01,WSW,240,1.0,5.0,8,0.00,,,0.00,,2013-01-22 21:42:00,
2013-01-22 13:52:00,80.0,13.0,30.01,SSW,210,3.0,6.0,8,0.00,,,0.00,,2013-01-22 21:52:00,
2013-01-22 14:02:00,80.0,19.0,30.01,West,269,2.0,6.0,10,0.00,,,0.00,,2013-01-22 22:02:00,
2013-01-22 14:12:00,80.0,19.0,30.01,West,269,2.0,6.0,10,0.00,,,0.00,,2013-01-22 22:12:00,
2013-01-22 14:22:00,80.0,16.0,30.01,West,261,3.0,6.0,9,0.00,,,0.00,,2013-01-22 22:22:00,
2013-01-22 14:32:00,80.0,16.0,30.01,West,261,3.0,6.0,9,0.00,,,0.00,,2013-01-22 22:32:00,
2013-01-22 14:42:00,80.0,10.0,30.01,West,268,6.0,8.0,7,0.00,,,0.00,,2013-01-22 22:42:00,
2013-01-22 14:53:00,80.0,10.0,30.00,West,259,2.0,7.0,7,0.00,,,0.00,,2013-01-22 22:53:00,
2013-01-22 15:02:00,80.0,10.0,30.01,WNW,282,3.0,6.0,7,0.00,,,0.00,,2013-01-22 23:02:00,
2013-01-22 15:12:00,80.0,10.0,30.01,WNW,282,3.0,6.0,7,0.00,,,0.00,,2013-01-22 23:12:00,
2013-01-22 15:22:00,80.0,7.0,30.01,WSW,242,2.0,5.0,6,0.00,,,0.00,,2013-01-22 23:22:00,
2013-01-22 15:32:00,80.0,7.0,30.00,SSW,209,2.0,3.0,6,0.00,,,0.00,,2013-01-22 23:32:00,
2013-01-22 15:53:00,80.0,10.0,30.00,WSW,246,1.0,3.0,7,0.00,,,0.00,,2013-01-22 23:53:00,
2013-01-22 16:02:00,79.0,15.0,29.99,SSW,196,2.0,3.0,9,0.00,,,0.00,,2013-01-23 00:02:00,
2013-01-22 16:12:00,79.0,15.0,29.99,SSW,196,2.0,3.0,9,0.00,,,0.00,,2013-01-23 00:12:00,
2013-01-22 16:22:00,77.0,14.0,29.99,SSW,198,1.0,3.0,9,0.00,,,0.00,,2013-01-23 00:22:00,
2013-01-22 16:32:00,77.0,16.0,29.99,SSW,204,2.0,5.0,10,0.00,,,0.00,,2013-01-23 00:32:00,
2013-01-22 16:42:00,77.0,16.0,29.99,SSW,204,2.0,5.0,10,0.00,,,0.00,,2013-01-23 00:42:00,
2013-01-22 16:52:00,75.0,19.0,30.00,SSW,204,2.0,3.0,12,0.00,,,0.00,,2013-01-23 00:52:00,
2013-01-22 17:02:00,75.0,19.0,30.00,SSW,204,1.0,3.0,12,0.00,,,0.00,,2013-01-23 01:02:00,
2013-01-22 17:12:00,75.0,19.0,30.00,SSW,204,1.0,3.0,12,0.00,,,0.00,,2013-01-23 01:12:00,
2013-01-22 17:22:00,73.0,17.0,30.01,SSW,205,2.0,5.0,12,0.00,,,0.00,,2013-01-23 01:22:00,
2013-01-22 17:32:00,73.0,21.0,30.01,WSW,241,1.0,3.0,14,0.00,,,0.00,,2013-01-23 01:32:00,
2013-01-22 17:42:00,73.0,21.0,30.01,WSW,241,1.0,3.0,14,0.00,,,0.00,,2013-01-23 01:42:00,
2013-01-22 17:53:00,72.0,25.0,30.01,West,278,0.0,3.0,17,0.00,,,0.00,,2013-01-23 01:53:00,
2013-01-22 18:02:00,70.0,25.0,30.02,West,274,0.0,2.0,18,0.00,,,0.00,,2013-01-23 02:02:00,
2013-01-22 18:12:00,70.0,25.0,30.02,West,274,0.0,2.0,18,0.00,,,0.00,,2013-01-23 02:12:00,
2013-01-22 18:22:00,69.0,27.0,30.02,West,281,0.0,0.0,21,0.00,,,0.00,,2013-01-23 02:22:00,
2013-01-22 18:32:00,68.0,25.0,30.03,West,281,0.0,0.0,20,0.00,,,0.00,,2013-01-23 02:32:00,
2013-01-22 18:42:00,68.0,25.0,30.03,West,281,0.0,0.0,20,0.00,,,0.00,,2013-01-23 02:42:00,
2013-01-22 18:53:00,66.0,26.0,30.03,West,281,0.0,1.0,22,0.00,,,0.00,,2013-01-23 02:53:00,
2013-01-22 19:02:00,66.0,27.0,30.03,West,281,0.0,0.0,23,0.00,,,0.00,,2013-01-23 03:02:00,
2013-01-22 19:12:00,66.0,27.0,30.03,West,281,0.0,0.0,23,0.00,,,0.00,,2013-01-23 03:12:00,
2013-01-22 19:22:00,64.0,28.0,30.04,West,281,0.0,1.0,26,0.00,,,0.00,,2013-01-23 03:22:00,
2013-01-22 19:32:00,63.0,29.0,30.04,West,281,0.0,1.0,28,0.00,,,0.00,,2013-01-23 03:32:00,
2013-01-22 19:42:00,63.0,29.0,30.04,West,281,0.0,1.0,28,0.00,,,0.00,,2013-01-23 03:42:00,
2013-01-22 19:53:00,62.0,30.0,30.03,NW,304,0.0,1.0,30,0.00,,,0.00,,2013-01-23 03:53:00,
2013-01-22 20:02:00,62.0,31.0,30.03,NW,304,0.0,0.0,31,0.00,,,0.00,,2013-01-23 04:02:00,
2013-01-22 20:12:00,62.0,31.0,30.03,NW,304,0.0,0.0,31,0.00,,,0.00,,2013-01-23 04:12:00,
2013-01-22 20:22:00,61.0,31.0,30.03,NW,304,0.0,0.0,32,0.00,,,0.00,,2013-01-23 04:22:00,
2013-01-22 20:32:00,60.0,32.0,30.04,NW,304,0.0,0.0,35,0.00,,,0.00,,2013-01-23 04:32:00,
2013-01-22 20:42:00,60.0,32.0,30.04,NW,304,0.0,0.0,35,0.00,,,0.00,,2013-01-23 04:42:00,
2013-01-22 20:52:00,59.0,31.0,30.04,NW,304,0.0,0.0,35,0.00,,,0.00,,2013-01-23 04:52:00,
2013-01-22 21:03:00,59.0,32.0,30.04,NW,304,0.0,0.0,36,0.00,,,0.00,,2013-01-23 05:03:00,
2013-01-22 21:12:00,59.0,32.0,30.04,NW,304,0.0,0.0,36,0.00,,,0.00,,2013-01-23 05:12:00,
2013-01-22 21:22:00,58.0,31.0,30.05,NW,304,0.0,0.0,36,0.00,,,0.00,,2013-01-23 05:22:00,
2013-01-22 21:32:00,57.0,31.0,30.05,North,11,0.0,3.0,37,0.00,,,0.00,,2013-01-23 05:32:00,
2013-01-22 21:42:00,57.0,31.0,30.05,North,11,0.0,3.0,37,0.00,,,0.00,,2013-01-23 05:42:00,
2013-01-22 21:52:00,56.0,31.0,30.05,North,11,0.0,1.0,38,0.00,,,0.00,,2013-01-23 05:52:00,
2013-01-22 22:02:00,56.0,31.0,30.05,North,11,0.0,1.0,38,0.00,,,0.00,,2013-01-23 06:02:00,
2013-01-22 22:12:00,56.0,31.0,30.05,North,11,0.0,1.0,38,0.00,,,0.00,,2013-01-23 06:12:00,
2013-01-22 22:22:00,57.0,30.0,30.06,North,5,1.0,2.0,36,0.00,,,0.00,,2013-01-23 06:22:00,
2013-01-22 22:32:00,57.0,30.0,30.06,North,5,0.0,1.0,36,0.00,,,0.00,,2013-01-23 06:32:00,
2013-01-22 22:42:00,57.0,30.0,30.06,North,5,0.0,1.0,36,0.00,,,0.00,,2013-01-23 06:42:00,
2013-01-22 22:52:00,57.0,30.0,30.06,North,5,0.0,1.0,35,0.00,,,0.00,,2013-01-23 06:52:00,
2013-01-22 23:02:00,57.0,31.0,30.06,North,5,0.0,1.0,37,0.00,,,0.00,,2013-01-23 07:02:00,
2013-01-22 23:11:00,57.0,31.0,30.06,North,5,0.0,1.0,37,0.00,,,0.00,,2013-01-23 07:11:00,
2013-01-22 23:22:00,56.0,31.0,30.06,NNE,13,0.0,2.0,39,0.00,,,0.00,,2013-01-23 07:22:00,
2013-01-22 23:33:00,56.0,32.0,30.05,NNE,13,0.0,1.0,40,0.00,,,0.00,,2013-01-23 07:33:00,
2013-01-22 23:42:00,56.0,32.0,30.05,NNE,13,0.0,1.0,40,0.00,,,0.00,,2013-01-23 07:42:00,
2013-01-22 23:53:00,55.0,32.0,30.05,NNE,13,0.0,0.0,42,0.00,,,0.00,,2013-01-23 07:53:00,